Location: Novokuznetsk
(53.7500°N, 87.1000°E)
Time: 04:56:44
(UTC+06:00)

ISS - Pass Details

Date: 22 July 2018
Orbit: 402 x 408 km, 51.6° (Epoch: 16 July)

Event Time Altitude Azimuth Distance (km) Brightness Sun altitude
Rises 03:05:25 0° 275° (W) 2,331 -0.3 -7.6°
Reaches altitude 10° 03:08:26 10° 245° (WSW) 1,467 -1.6 -7.3°
Maximum altitude 03:09:54 13° 218° (SW) 1,323 -1.9 -7.2°
Drops below altitude 10° 03:11:22 10° 191° (SSW) 1,464 -1.5 -7.1°
Sets 03:14:22 0° 161° (SSE) 2,320 -0.3 -6.8°
